Location: Bonell Gulch
(37.7005°N, 119.9821°W)
Time: 06:35:22
(UTC+00:00)

Daily predictions for brighter satellites

Satellite Brightness Start Highest point End
(mag) Time Altitude Azimuth Time Altitude Azimuth Time Altitude Azimuth
Cosmos 1626 Rocket 4.3 12:00:41 10° SW 12:04:45 35° WNW 12:08:48 10° NNW
ADEOS II 4.2 12:03:30 10° NW 12:04:51 11° WNW 12:06:12 10° WNW
PAYLOAD A 4.3 12:02:36 10° N 12:07:47 61° WNW 12:13:04 10° SSW
Cosmos 1809 Rocket 4.5 12:02:28 10° N 12:08:34 78° W 12:14:39 10° S
